Time,TemperatureF,DewpointF,PressureIn,WindDirection,WindDirectionDegrees,WindSpeedMPH,WindSpeedGustMPH,Humidity,HourlyPrecipIn,Conditions,Clouds,dailyrainin,SoftwareType,DateUTC
2013-01-17 00:02:00,29.1,28.9,29.67,NE,45,0.0,0.0,99,0.00,,,0.00,meteohub,2013-01-17 05:02:00,
2013-01-17 00:03:00,29.1,28.9,29.68,NE,45,0.0,0.0,99,0.00,,,0.00,meteohub,2013-01-17 05:03:00,
2013-01-17 00:04:00,29.1,28.9,29.68,NE,45,0.0,0.0,99,0.00,,,0.00,meteohub,2013-01-17 05:04:00,
2013-01-17 00:09:00,28.9,28.8,29.68,NE,45,0.0,0.0,99,0.00,,,0.00,meteohub,2013-01-17 05:09:00,
2013-01-17 00:14:00,28.9,28.8,29.68,NE,45,0.0,0.0,99,0.00,,,0.00,meteohub,2013-01-17 05:14:00,
2013-01-17 00:19:00,28.9,28.8,29.68,NE,45,0.0,0.0,99,0.00,,,0.00,meteohub,2013-01-17 05:19:00,
2013-01-17 00:24:00,28.9,28.8,29.68,NE,45,0.0,0.0,99,0.00,,,0.00,meteohub,2013-01-17 05:24:00,
2013-01-17 00:29:00,28.8,28.6,29.68,NE,45,0.0,0.0,99,0.00,,,0.00,meteohub,2013-01-17 05:29:00,
2013-01-17 00:35:00,28.8,28.6,29.68,NE,45,0.0,0.0,99,0.00,,,0.00,meteohub,2013-01-17 05:35:00,
2013-01-17 00:40:00,28.6,28.4,29.68,NE,45,0.0,0.0,99,0.00,,,0.00,meteohub,2013-01-17 05:40:00,
2013-01-17 00:45:00,28.6,28.4,29.69,NE,45,0.0,0.0,99,0.00,,,0.00,meteohub,2013-01-17 05:45:00,
2013-01-17 00:50:00,28.4,28.2,29.69,NE,45,0.0,0.0,99,0.00,,,0.00,meteohub,2013-01-17 05:50:00,
2013-01-17 00:55:00,28.2,28.0,29.69,NE,45,0.0,0.0,99,0.00,,,0.00,meteohub,2013-01-17 05:55:00,
2013-01-17 01:00:00,27.9,27.7,29.68,NE,45,0.0,0.0,99,0.00,,,0.00,meteohub,2013-01-17 06:00:00,
2013-01-17 01:05:00,27.7,27.5,29.68,NE,45,0.0,0.0,99,0.00,,,0.00,meteohub,2013-01-17 06:05:00,
2013-01-17 01:10:00,27.7,27.5,29.68,NE,45,0.0,0.0,99,0.00,,,0.00,meteohub,2013-01-17 06:10:00,
2013-01-17 01:15:00,27.5,27.3,29.68,NE,45,0.0,0.0,99,0.00,,,0.00,meteohub,2013-01-17 06:15:00,
2013-01-17 01:20:00,27.3,27.1,29.68,NE,45,0.0,0.0,99,0.00,,,0.00,meteohub,2013-01-17 06:20:00,
2013-01-17 01:25:00,27.1,27.0,29.68,NE,45,0.0,0.0,99,0.00,,,0.00,meteohub,2013-01-17 06:25:00,
2013-01-17 01:30:00,27.1,27.0,29.68,NE,45,0.0,0.0,99,0.00,,,0.00,meteohub,2013-01-17 06:30:00,
2013-01-17 01:35:00,27.1,27.0,29.68,NE,45,0.0,0.0,99,0.00,,,0.00,meteohub,2013-01-17 06:35:00,
2013-01-17 01:40:00,27.0,26.8,29.68,NE,45,0.0,0.0,99,0.00,,,0.00,meteohub,2013-01-17 06:40:00,
2013-01-17 01:45:00,26.8,26.6,29.69,NE,45,0.0,0.0,99,0.00,,,0.00,meteohub,2013-01-17 06:45:00,
2013-01-17 01:50:00,26.6,26.4,29.69,NE,45,0.0,0.0,99,0.00,,,0.00,meteohub,2013-01-17 06:50:00,
2013-01-17 01:56:00,26.4,26.2,29.69,NE,45,0.0,0.0,99,0.00,,,0.00,meteohub,2013-01-17 06:56:00,
2013-01-17 02:01:00,26.2,26.1,29.69,NE,45,0.0,0.0,99,0.00,,,0.00,meteohub,2013-01-17 07:01:00,
2013-01-17 02:06:00,25.9,25.7,29.68,NE,45,0.0,0.0,99,0.00,,,0.00,meteohub,2013-01-17 07:06:00,
2013-01-17 02:11:00,25.7,25.5,29.68,NE,45,0.0,0.0,99,0.00,,,0.00,meteohub,2013-01-17 07:11:00,
2013-01-17 02:16:00,25.3,25.2,29.68,NE,45,0.0,0.0,99,0.00,,,0.00,meteohub,2013-01-17 07:16:00,
2013-01-17 02:21:00,24.8,24.6,29.69,NE,45,0.0,0.0,99,0.00,,,0.00,meteohub,2013-01-17 07:21:00,
2013-01-17 02:26:00,24.4,24.3,29.69,NE,45,0.0,0.0,99,0.00,,,0.00,meteohub,2013-01-17 07:26:00,
2013-01-17 02:31:00,24.3,24.1,29.69,NE,45,0.0,0.0,99,0.00,,,0.00,meteohub,2013-01-17 07:31:00,
2013-01-17 02:36:00,24.1,23.9,29.69,NE,45,0.0,0.0,99,0.00,,,0.00,meteohub,2013-01-17 07:36:00,
2013-01-17 02:41:00,23.7,23.5,29.69,NE,45,0.0,0.0,99,0.00,,,0.00,meteohub,2013-01-17 07:41:00,
2013-01-17 02:46:00,23.2,23.0,29.69,NE,45,0.0,0.0,99,0.00,,,0.00,meteohub,2013-01-17 07:46:00,
2013-01-17 02:51:00,23.0,22.8,29.70,NE,45,0.0,0.0,99,0.00,,,0.00,meteohub,2013-01-17 07:51:00,
2013-01-17 02:56:00,23.0,22.8,29.70,NE,45,0.0,0.0,99,0.00,,,0.00,meteohub,2013-01-17 07:56:00,
2013-01-17 03:02:00,23.2,23.0,29.69,NE,45,0.0,0.0,99,0.00,,,0.00,meteohub,2013-01-17 08:02:00,
2013-01-17 03:07:00,23.4,23.2,29.68,NE,45,0.0,0.0,99,0.00,,,0.00,meteohub,2013-01-17 08:07:00,
2013-01-17 03:12:00,23.5,23.4,29.69,NE,45,0.0,0.0,99,0.00,,,0.00,meteohub,2013-01-17 08:12:00,
2013-01-17 03:17:00,24.3,24.1,29.69,NE,45,0.0,0.0,99,0.00,,,0.00,meteohub,2013-01-17 08:17:00,
2013-01-17 03:22:00,24.6,24.4,29.68,NE,45,0.0,0.0,99,0.00,,,0.00,meteohub,2013-01-17 08:22:00,
2013-01-17 03:27:00,25.0,24.8,29.68,NE,45,0.0,0.0,99,0.00,,,0.00,meteohub,2013-01-17 08:27:00,
2013-01-17 03:32:00,25.0,24.8,29.68,NE,45,0.0,0.0,99,0.00,,,0.00,meteohub,2013-01-17 08:32:00,
2013-01-17 03:37:00,25.0,24.8,29.67,NE,45,0.0,0.0,99,0.00,,,0.00,meteohub,2013-01-17 08:37:00,
2013-01-17 03:42:00,25.0,24.8,29.67,NE,45,0.0,0.0,99,0.00,,,0.00,meteohub,2013-01-17 08:42:00,
2013-01-17 03:47:00,25.0,24.8,29.67,NE,45,0.0,0.0,99,0.00,,,0.00,meteohub,2013-01-17 08:47:00,
2013-01-17 03:52:00,25.0,24.8,29.67,NE,45,0.0,0.0,99,0.00,,,0.00,meteohub,2013-01-17 08:52:00,
2013-01-17 03:57:00,24.8,24.6,29.68,NE,45,0.0,0.0,99,0.00,,,0.00,meteohub,2013-01-17 08:57:00,
2013-01-17 04:02:00,24.4,24.3,29.68,NE,45,0.0,0.0,99,0.00,,,0.00,meteohub,2013-01-17 09:02:00,
2013-01-17 04:07:00,24.4,24.3,29.68,NE,45,0.0,0.0,99,0.00,,,0.00,meteohub,2013-01-17 09:07:00,
2013-01-17 04:12:00,24.6,24.4,29.67,NE,45,0.0,0.0,99,0.00,,,0.00,meteohub,2013-01-17 09:12:00,
2013-01-17 04:17:00,24.8,24.6,29.67,NE,45,0.0,0.0,99,0.00,,,0.00,meteohub,2013-01-17 09:17:00,
2013-01-17 04:22:00,25.0,24.8,29.67,NE,45,0.0,0.0,99,0.00,,,0.00,meteohub,2013-01-17 09:22:00,
2013-01-17 04:27:00,25.0,24.8,29.67,NE,45,0.0,0.0,99,0.00,,,0.00,meteohub,2013-01-17 09:27:00,
2013-01-17 04:32:00,25.2,25.0,29.67,NE,45,0.0,0.0,99,0.00,,,0.00,meteohub,2013-01-17 09:32:00,
2013-01-17 04:37:00,25.2,25.0,29.66,NE,45,0.0,0.0,99,0.00,,,0.00,meteohub,2013-01-17 09:37:00,
2013-01-17 04:42:00,25.0,24.8,29.67,NE,45,0.0,0.0,99,0.00,,,0.00,meteohub,2013-01-17 09:42:00,
2013-01-17 04:47:00,25.0,24.8,29.67,NE,45,0.0,0.0,99,0.00,,,0.00,meteohub,2013-01-17 09:47:00,
2013-01-17 04:52:00,25.2,25.0,29.67,NE,45,0.0,0.0,99,0.00,,,0.00,meteohub,2013-01-17 09:52:00,
2013-01-17 04:58:00,25.0,24.8,29.67,NE,45,0.0,0.0,99,0.00,,,0.00,meteohub,2013-01-17 09:58:00,
2013-01-17 05:03:00,25.0,24.8,29.68,NE,45,0.0,0.0,99,0.00,,,0.00,meteohub,2013-01-17 10:03:00,
2013-01-17 05:08:00,24.8,24.6,29.68,NE,45,0.0,0.0,99,0.00,,,0.00,meteohub,2013-01-17 10:08:00,
2013-01-17 05:13:00,24.6,24.4,29.68,NE,45,0.0,0.0,99,0.00,,,0.00,meteohub,2013-01-17 10:13:00,
2013-01-17 05:18:00,24.4,24.3,29.68,NE,45,0.0,0.0,99,0.00,,,0.00,meteohub,2013-01-17 10:18:00,
2013-01-17 05:23:00,24.3,24.1,29.68,NE,45,0.0,0.0,99,0.00,,,0.00,meteohub,2013-01-17 10:23:00,
2013-01-17 05:28:00,24.3,24.1,29.68,NE,45,0.0,0.0,99,0.00,,,0.00,meteohub,2013-01-17 10:28:00,
2013-01-17 05:33:00,24.4,24.3,29.69,NE,45,0.0,0.0,99,0.00,,,0.00,meteohub,2013-01-17 10:33:00,
2013-01-17 05:38:00,24.4,24.3,29.69,NE,45,0.0,0.0,99,0.00,,,0.00,meteohub,2013-01-17 10:38:00,
2013-01-17 05:43:00,24.3,24.1,29.69,NE,45,0.0,0.0,99,0.00,,,0.00,meteohub,2013-01-17 10:43:00,
2013-01-17 05:49:00,24.3,24.1,29.69,NE,45,0.0,0.0,99,0.00,,,0.00,meteohub,2013-01-17 10:49:00,
2013-01-17 05:54:00,24.1,23.9,29.68,NE,45,0.0,0.0,99,0.00,,,0.00,meteohub,2013-01-17 10:54:00,
2013-01-17 05:59:00,23.9,23.7,29.69,NE,45,0.0,0.0,99,0.00,,,0.00,meteohub,2013-01-17 10:59:00,
2013-01-17 06:04:00,23.7,23.5,29.69,NE,45,0.0,0.0,99,0.00,,,0.00,meteohub,2013-01-17 11:04:00,
2013-01-17 06:09:00,23.5,23.4,29.69,NE,45,0.0,0.0,99,0.00,,,0.00,meteohub,2013-01-17 11:09:00,
2013-01-17 06:14:00,23.4,23.2,29.68,NE,45,0.0,0.0,99,0.00,,,0.00,meteohub,2013-01-17 11:14:00,
2013-01-17 06:19:00,23.4,23.2,29.69,NE,45,0.0,0.0,99,0.00,,,0.00,meteohub,2013-01-17 11:19:00,
2013-01-17 06:24:00,23.5,23.4,29.69,NE,45,0.0,0.0,99,0.00,,,0.00,meteohub,2013-01-17 11:24:00,
2013-01-17 06:29:00,23.5,23.4,29.69,NE,45,0.0,0.0,99,0.00,,,0.00,meteohub,2013-01-17 11:29:00,
2013-01-17 06:34:00,23.5,23.4,29.69,NE,45,0.0,0.0,99,0.00,,,0.00,meteohub,2013-01-17 11:34:00,
2013-01-17 06:39:00,23.4,23.2,29.69,NE,45,0.0,0.0,99,0.00,,,0.00,meteohub,2013-01-17 11:39:00,
2013-01-17 06:44:00,23.0,22.8,29.69,NE,45,0.0,0.0,99,0.00,,,0.00,meteohub,2013-01-17 11:44:00,
2013-01-17 06:49:00,22.5,22.3,29.69,NE,45,0.0,0.0,99,0.00,,,0.00,meteohub,2013-01-17 11:49:00,
2013-01-17 06:55:00,22.5,22.3,29.70,NE,45,0.0,0.0,99,0.00,,,0.00,meteohub,2013-01-17 11:55:00,
2013-01-17 07:00:00,22.6,22.5,29.70,NE,45,0.0,0.0,99,0.00,,,0.00,meteohub,2013-01-17 12:00:00,
2013-01-17 07:05:00,22.8,22.6,29.70,NE,45,0.0,0.0,99,0.00,,,0.00,meteohub,2013-01-17 12:05:00,
2013-01-17 07:10:00,23.0,22.8,29.70,NE,45,0.0,0.0,99,0.00,,,0.00,meteohub,2013-01-17 12:10:00,
2013-01-17 07:15:00,23.0,22.8,29.70,NE,45,0.0,0.0,99,0.00,,,0.00,meteohub,2013-01-17 12:15:00,
2013-01-17 07:20:00,23.0,22.8,29.71,NE,45,0.0,0.0,99,0.00,,,0.00,meteohub,2013-01-17 12:20:00,
2013-01-17 07:25:00,23.4,23.2,29.71,NE,45,0.0,0.0,99,0.00,,,0.00,meteohub,2013-01-17 12:25:00,
2013-01-17 07:30:00,24.1,23.9,29.71,NE,45,0.0,0.0,99,0.00,,,0.00,meteohub,2013-01-17 12:30:00,
2013-01-17 07:35:00,24.6,24.4,29.71,NE,45,0.0,0.0,99,0.00,,,0.00,meteohub,2013-01-17 12:35:00,
2013-01-17 07:40:00,25.7,25.5,29.72,NE,45,0.0,0.0,99,0.00,,,0.00,meteohub,2013-01-17 12:40:00,
2013-01-17 07:45:00,26.4,26.2,29.72,NE,45,0.0,0.0,99,0.00,,,0.00,meteohub,2013-01-17 12:45:00,
2013-01-17 07:50:00,27.7,27.5,29.71,NE,45,0.0,0.0,99,0.00,,,0.00,meteohub,2013-01-17 12:50:00,
2013-01-17 07:55:00,28.4,28.2,29.72,NE,45,0.0,0.0,99,0.00,,,0.00,meteohub,2013-01-17 12:55:00,
2013-01-17 08:00:00,29.5,29.3,29.72,NE,45,0.0,0.0,99,0.00,,,0.00,meteohub,2013-01-17 13:00:00,
2013-01-17 08:05:00,31.5,31.3,29.74,NE,45,0.0,0.0,99,0.00,,,0.00,meteohub,2013-01-17 13:05:00,
2013-01-17 08:11:00,32.5,32.4,29.74,NE,45,0.0,0.0,99,0.00,,,0.00,meteohub,2013-01-17 13:11:00,
2013-01-17 08:16:00,33.3,33.1,29.74,NE,45,0.0,0.0,99,0.00,,,0.00,meteohub,2013-01-17 13:16:00,
2013-01-17 08:21:00,33.3,32.2,29.74,NE,45,0.0,0.0,96,0.00,,,0.00,meteohub,2013-01-17 13:21:00,
2013-01-17 08:26:00,33.4,32.2,29.74,NE,45,0.0,0.0,95,0.00,,,0.00,meteohub,2013-01-17 13:26:00,
2013-01-17 08:31:00,35.1,33.8,29.74,NE,45,0.0,0.0,95,0.00,,,0.00,meteohub,2013-01-17 13:31:00,
2013-01-17 08:36:00,36.0,33.6,29.75,NE,45,0.0,0.0,91,0.00,,,0.00,meteohub,2013-01-17 13:36:00,
2013-01-17 08:41:00,37.4,35.1,29.75,NE,45,0.0,0.0,91,0.00,,,0.00,meteohub,2013-01-17 13:41:00,
2013-01-17 08:46:00,37.8,34.5,29.75,NE,45,0.0,0.0,88,0.00,,,0.00,meteohub,2013-01-17 13:46:00,
2013-01-17 08:51:00,38.8,35.2,29.75,NE,45,0.0,0.0,87,0.00,,,0.00,meteohub,2013-01-17 13:51:00,
2013-01-17 08:56:00,38.1,34.0,29.75,NE,45,0.0,0.0,85,0.00,,,0.00,meteohub,2013-01-17 13:56:00,
2013-01-17 09:01:00,38.3,34.0,29.75,West,270,0.0,0.0,84,0.00,,,0.00,meteohub,2013-01-17 14:01:00,
2013-01-17 09:06:00,37.2,32.5,29.76,SW,225,0.0,0.0,83,0.00,,,0.00,meteohub,2013-01-17 14:06:00,
2013-01-17 09:11:00,37.4,33.3,29.75,West,270,0.0,0.0,85,0.00,,,0.00,meteohub,2013-01-17 14:11:00,
2013-01-17 09:16:00,38.3,33.6,29.76,NW,315,0.0,0.0,83,0.00,,,0.00,meteohub,2013-01-17 14:16:00,
2013-01-17 09:21:00,37.6,33.3,29.76,NW,315,0.0,0.0,84,0.00,,,0.00,meteohub,2013-01-17 14:21:00,
2013-01-17 09:26:00,38.1,33.8,29.75,NW,315,0.0,0.0,84,0.00,,,0.01,meteohub,2013-01-17 14:26:00,
2013-01-17 09:31:00,38.7,34.5,29.76,NW,315,0.0,0.0,85,0.01,,,0.01,meteohub,2013-01-17 14:31:00,
2013-01-17 09:36:00,38.7,34.5,29.76,NW,315,0.0,0.0,85,0.01,,,0.01,meteohub,2013-01-17 14:36:00,
2013-01-17 09:41:00,41.5,37.9,29.76,NW,315,0.0,0.0,87,0.01,,,0.01,meteohub,2013-01-17 14:41:00,
2013-01-17 09:46:00,41.4,36.0,29.76,NW,315,0.0,0.0,81,0.01,,,0.01,meteohub,2013-01-17 14:46:00,
2013-01-17 09:51:00,41.7,35.1,29.75,SW,225,0.0,0.0,77,0.01,,,0.01,meteohub,2013-01-17 14:51:00,
2013-01-17 09:56:00,42.3,35.6,29.77,SW,225,0.0,1.0,77,0.01,,,0.01,meteohub,2013-01-17 14:56:00,
2013-01-17 10:01:00,41.7,34.7,29.76,SW,225,0.0,1.0,76,0.01,,,0.01,meteohub,2013-01-17 15:01:00,
2013-01-17 10:07:00,41.9,35.6,29.77,NW,315,1.0,1.0,78,0.01,,,0.01,meteohub,2013-01-17 15:07:00,
2013-01-17 10:12:00,43.3,36.9,29.76,West,270,2.0,2.0,78,0.01,,,0.01,meteohub,2013-01-17 15:12:00,
2013-01-17 10:17:00,43.3,34.9,29.77,SW,225,4.0,4.0,72,0.00,,,0.01,meteohub,2013-01-17 15:17:00,
2013-01-17 10:22:00,43.5,34.7,29.76,North,0,3.0,4.0,71,0.00,,,0.01,meteohub,2013-01-17 15:22:00,
2013-01-17 10:27:00,44.1,34.9,29.76,South,180,4.0,4.0,70,0.00,,,0.01,meteohub,2013-01-17 15:27:00,
2013-01-17 10:32:00,43.3,34.5,29.76,NW,315,2.0,4.0,71,0.00,,,0.01,meteohub,2013-01-17 15:32:00,
2013-01-17 10:37:00,42.6,34.2,29.77,South,180,3.0,4.0,72,0.00,,,0.01,meteohub,2013-01-17 15:37:00,
2013-01-17 10:42:00,41.9,34.2,29.76,SW,225,1.0,4.0,74,0.00,,,0.01,meteohub,2013-01-17 15:42:00,
2013-01-17 10:47:00,43.7,36.7,29.75,SW,225,2.0,4.0,76,0.00,,,0.01,meteohub,2013-01-17 15:47:00,
2013-01-17 10:52:00,45.0,36.1,29.75,SW,225,4.0,4.0,71,0.00,,,0.01,meteohub,2013-01-17 15:52:00,
2013-01-17 10:57:00,43.7,35.2,29.75,West,270,2.0,4.0,72,0.00,,,0.01,meteohub,2013-01-17 15:57:00,
2013-01-17 11:02:00,43.5,35.4,29.75,SW,225,2.0,4.0,73,0.00,,,0.01,meteohub,2013-01-17 16:02:00,
2013-01-17 11:07:00,43.3,35.2,29.76,NW,315,4.0,4.0,73,0.00,,,0.01,meteohub,2013-01-17 16:07:00,
2013-01-17 11:12:00,43.5,35.8,29.75,West,270,4.0,4.0,74,0.00,,,0.01,meteohub,2013-01-17 16:12:00,
2013-01-17 11:17:00,43.5,35.4,29.75,West,270,4.0,4.0,73,0.00,,,0.01,meteohub,2013-01-17 16:17:00,
2013-01-17 11:22:00,42.4,34.7,29.75,South,180,2.0,4.0,74,0.00,,,0.01,meteohub,2013-01-17 16:22:00,
2013-01-17 11:27:00,42.3,34.9,29.75,NW,315,5.0,5.0,75,0.00,,,0.01,meteohub,2013-01-17 16:27:00,
2013-01-17 11:32:00,42.6,35.2,29.75,SW,225,4.0,4.0,75,0.00,,,0.01,meteohub,2013-01-17 16:32:00,
2013-01-17 11:38:00,43.5,35.4,29.76,West,270,6.0,8.0,73,0.00,,,0.01,meteohub,2013-01-17 16:38:00,
2013-01-17 11:43:00,43.0,34.5,29.76,SSW,203,9.0,9.0,72,0.00,,,0.01,meteohub,2013-01-17 16:43:00,
2013-01-17 11:48:00,42.6,34.5,29.75,NW,315,8.0,8.0,73,0.00,,,0.01,meteohub,2013-01-17 16:48:00,
2013-01-17 11:53:00,42.6,34.9,29.76,SW,225,6.0,8.0,74,0.00,,,0.01,meteohub,2013-01-17 16:53:00,
2013-01-17 11:58:00,43.3,35.2,29.76,WSW,248,5.0,8.0,73,0.00,,,0.01,meteohub,2013-01-17 16:58:00,
2013-01-17 12:03:00,44.4,36.3,29.76,West,270,8.0,8.0,73,0.00,,,0.01,meteohub,2013-01-17 17:03:00,
2013-01-17 12:08:00,43.3,34.5,29.77,West,270,9.0,9.0,71,0.00,,,0.01,meteohub,2013-01-17 17:08:00,
2013-01-17 12:13:00,43.0,34.9,29.76,SW,225,5.0,8.0,73,0.00,,,0.01,meteohub,2013-01-17 17:13:00,
2013-01-17 12:18:00,43.0,35.2,29.77,South,180,2.0,8.0,74,0.00,,,0.01,meteohub,2013-01-17 17:18:00,
2013-01-17 12:23:00,43.3,36.0,29.77,North,0,2.0,8.0,75,0.00,,,0.01,meteohub,2013-01-17 17:23:00,
2013-01-17 12:28:00,43.2,35.4,29.77,West,270,2.0,8.0,74,0.00,,,0.01,meteohub,2013-01-17 17:28:00,
2013-01-17 12:34:00,44.6,36.5,29.77,West,270,3.0,8.0,73,0.00,,,0.01,meteohub,2013-01-17 17:34:00,
2013-01-17 12:39:00,44.1,35.2,29.77,SW,225,7.0,8.0,71,0.00,,,0.01,meteohub,2013-01-17 17:39:00,
2013-01-17 12:44:00,43.5,35.1,29.78,SW,225,5.0,8.0,72,0.00,,,0.01,meteohub,2013-01-17 17:44:00,
2013-01-17 12:49:00,43.2,35.4,29.78,SW,225,2.0,8.0,74,0.00,,,0.01,meteohub,2013-01-17 17:49:00,
2013-01-17 12:54:00,41.4,34.7,29.78,North,0,5.0,8.0,77,0.00,,,0.01,meteohub,2013-01-17 17:54:00,
2013-01-17 12:59:00,36.9,32.2,29.79,North,0,15.0,15.0,83,0.00,,,0.08,meteohub,2013-01-17 17:59:00,
2013-01-17 13:04:00,34.5,31.3,29.80,NW,315,12.0,12.0,88,0.00,,,0.08,meteohub,2013-01-17 18:04:00,
2013-01-17 13:09:00,34.2,31.3,29.81,NW,315,8.0,8.0,89,0.00,,,0.08,meteohub,2013-01-17 18:09:00,
2013-01-17 13:14:00,34.2,30.9,29.81,West,270,12.0,12.0,88,0.00,,,0.08,meteohub,2013-01-17 18:14:00,
2013-01-17 13:20:00,34.2,30.4,29.81,NW,315,12.0,19.0,86,0.09,,,0.08,meteohub,2013-01-17 18:20:00,
2013-01-17 13:25:00,34.3,30.4,29.81,North,0,10.0,19.0,85,0.09,,,0.08,meteohub,2013-01-17 18:25:00,
2013-01-17 13:30:00,34.2,29.3,29.82,North,0,15.0,19.0,82,0.09,,,0.08,meteohub,2013-01-17 18:30:00,
2013-01-17 13:35:00,34.3,29.1,29.82,North,0,11.0,19.0,81,0.09,,,0.12,meteohub,2013-01-17 18:35:00,
2013-01-17 13:40:00,34.5,28.9,29.82,NW,315,15.0,19.0,80,0.09,,,0.12,meteohub,2013-01-17 18:40:00,
2013-01-17 13:45:00,35.6,30.0,29.82,NNW,338,6.0,19.0,80,0.09,,,0.12,meteohub,2013-01-17 18:45:00,
2013-01-17 13:50:00,35.8,29.8,29.83,NW,315,7.0,17.0,79,0.07,,,0.12,meteohub,2013-01-17 18:50:00,
2013-01-17 13:55:00,36.0,29.5,29.83,West,270,11.0,17.0,77,0.07,,,0.12,meteohub,2013-01-17 18:55:00,
2013-01-17 14:00:00,35.8,28.9,29.84,NE,45,5.0,17.0,76,0.07,,,0.12,meteohub,2013-01-17 19:00:00,
2013-01-17 14:05:00,35.4,28.6,29.84,North,0,4.0,17.0,76,0.07,,,0.13,meteohub,2013-01-17 19:05:00,
2013-01-17 14:10:00,35.2,27.5,29.84,NW,315,12.0,17.0,73,0.07,,,0.13,meteohub,2013-01-17 19:10:00,
2013-01-17 14:15:00,35.6,27.5,29.85,North,0,5.0,17.0,72,0.04,,,0.13,meteohub,2013-01-17 19:15:00,
2013-01-17 14:20:00,35.2,26.4,29.85,West,270,10.0,13.0,70,0.04,,,0.13,meteohub,2013-01-17 19:20:00,
2013-01-17 14:25:00,35.6,26.8,29.85,North,-999,-999.0,13.0,70,0.04,,,0.14,meteohub,2013-01-17 19:25:00,
2013-01-17 14:30:00,36.0,26.4,29.85,NW,315,11.0,13.0,68,0.02,,,0.14,meteohub,2013-01-17 19:30:00,
2013-01-17 14:35:00,36.1,25.9,29.85,North,0,8.0,15.0,66,0.02,,,0.14,meteohub,2013-01-17 19:35:00,
2013-01-17 14:41:00,36.5,25.5,29.86,North,0,8.0,15.0,64,0.02,,,0.14,meteohub,2013-01-17 19:41:00,
2013-01-17 14:46:00,36.3,25.0,29.86,NW,315,11.0,15.0,63,0.02,,,0.14,meteohub,2013-01-17 19:46:00,
2013-01-17 14:51:00,36.1,24.8,29.87,West,270,11.0,15.0,63,0.02,,,0.14,meteohub,2013-01-17 19:51:00,
2013-01-17 14:56:00,35.6,23.5,29.86,NNW,338,17.0,17.0,61,0.01,,,0.14,meteohub,2013-01-17 19:56:00,
2013-01-17 15:01:00,34.7,22.3,29.87,North,0,12.0,14.0,60,0.01,,,0.14,meteohub,2013-01-17 20:01:00,
2013-01-17 15:06:00,34.2,21.4,29.87,NW,315,14.0,14.0,59,0.01,,,0.14,meteohub,2013-01-17 20:06:00,
2013-01-17 15:11:00,33.8,21.4,29.87,NW,315,12.0,14.0,60,0.01,,,0.14,meteohub,2013-01-17 20:11:00,
2013-01-17 15:16:00,33.8,21.7,29.88,West,270,10.0,14.0,61,0.01,,,0.14,meteohub,2013-01-17 20:16:00,
2013-01-17 15:21:00,33.4,21.4,29.88,West,270,8.0,17.0,61,0.00,,,0.14,meteohub,2013-01-17 20:21:00,
2013-01-17 15:26:00,32.9,20.8,29.87,WNW,293,11.0,17.0,61,0.00,,,0.14,meteohub,2013-01-17 20:26:00,
2013-01-17 15:31:00,32.5,21.0,29.88,NW,315,8.0,17.0,62,0.00,,,0.14,meteohub,2013-01-17 20:31:00,
2013-01-17 15:37:00,32.2,20.3,29.89,NW,315,15.0,17.0,61,0.00,,,0.14,meteohub,2013-01-17 20:37:00,
2013-01-17 15:42:00,31.8,18.0,29.89,NW,315,11.0,17.0,56,0.00,,,0.14,meteohub,2013-01-17 20:42:00,
2013-01-17 15:47:00,31.6,17.8,29.89,West,270,7.0,17.0,56,0.00,,,0.14,meteohub,2013-01-17 20:47:00,
2013-01-17 15:52:00,31.3,17.4,29.90,NW,315,11.0,17.0,56,0.00,,,0.14,meteohub,2013-01-17 20:52:00,
2013-01-17 15:57:00,31.1,17.2,29.91,North,0,9.0,17.0,56,0.00,,,0.14,meteohub,2013-01-17 20:57:00,
2013-01-17 16:02:00,30.7,16.5,29.91,NW,315,11.0,13.0,55,0.00,,,0.14,meteohub,2013-01-17 21:02:00,
2013-01-17 16:07:00,30.6,16.7,29.91,NNW,338,11.0,13.0,56,0.00,,,0.14,meteohub,2013-01-17 21:07:00,
2013-01-17 16:13:00,30.2,16.0,29.91,North,0,13.0,13.0,55,0.00,,,0.14,meteohub,2013-01-17 21:13:00,
2013-01-17 16:18:00,30.0,15.8,29.91,WNW,293,11.0,13.0,55,0.00,,,0.14,meteohub,2013-01-17 21:18:00,
2013-01-17 16:23:00,29.8,14.7,29.92,NW,315,11.0,13.0,53,0.00,,,0.14,meteohub,2013-01-17 21:23:00,
2013-01-17 16:28:00,29.5,14.0,29.92,NW,315,12.0,13.0,52,0.00,,,0.14,meteohub,2013-01-17 21:28:00,
2013-01-17 16:33:00,29.3,13.8,29.93,NW,315,11.0,18.0,52,0.00,,,0.14,meteohub,2013-01-17 21:33:00,
2013-01-17 16:38:00,29.1,13.3,29.93,NW,315,9.0,18.0,51,0.00,,,0.14,meteohub,2013-01-17 21:38:00,
2013-01-17 16:43:00,28.8,13.3,29.93,NW,315,6.0,18.0,52,0.00,,,0.14,meteohub,2013-01-17 21:43:00,
2013-01-17 16:48:00,28.6,13.1,29.93,North,0,8.0,18.0,52,0.00,,,0.14,meteohub,2013-01-17 21:48:00,
2013-01-17 16:53:00,28.4,13.1,29.93,NW,315,11.0,18.0,52,0.00,,,0.14,meteohub,2013-01-17 21:53:00,
2013-01-17 16:58:00,28.2,12.9,29.93,West,270,9.0,18.0,52,0.00,,,0.14,meteohub,2013-01-17 21:58:00,
2013-01-17 17:04:00,28.0,13.1,29.93,NW,315,7.0,11.0,53,0.00,,,0.14,meteohub,2013-01-17 22:04:00,
2013-01-17 17:09:00,27.9,12.9,29.94,North,0,10.0,11.0,53,0.00,,,0.14,meteohub,2013-01-17 22:09:00,
2013-01-17 17:14:00,27.5,11.7,29.94,NW,315,8.0,11.0,51,0.00,,,0.14,meteohub,2013-01-17 22:14:00,
2013-01-17 17:19:00,27.1,9.1,29.94,WNW,293,15.0,15.0,46,0.00,,,0.14,meteohub,2013-01-17 22:19:00,
2013-01-17 17:24:00,27.0,7.9,29.95,NW,315,10.0,11.0,44,0.00,,,0.14,meteohub,2013-01-17 22:24:00,
2013-01-17 17:29:00,26.8,7.7,29.95,North,0,5.0,11.0,44,0.00,,,0.14,meteohub,2013-01-17 22:29:00,
2013-01-17 17:34:00,26.6,6.6,29.95,NW,315,14.0,17.0,42,0.00,,,0.14,meteohub,2013-01-17 22:34:00,
2013-01-17 17:39:00,26.4,6.4,29.96,NW,315,6.0,17.0,42,0.00,,,0.14,meteohub,2013-01-17 22:39:00,
2013-01-17 17:44:00,26.4,7.0,29.96,West,270,8.0,17.0,43,0.00,,,0.14,meteohub,2013-01-17 22:44:00,
2013-01-17 17:49:00,26.2,7.3,29.97,WNW,293,7.0,17.0,44,0.00,,,0.14,meteohub,2013-01-17 22:49:00,
2013-01-17 17:54:00,26.1,7.7,29.97,NW,315,8.0,11.0,45,0.00,,,0.14,meteohub,2013-01-17 22:54:00,
2013-01-17 17:59:00,25.9,7.5,29.98,NW,315,5.0,11.0,45,0.00,,,0.14,meteohub,2013-01-17 22:59:00,
2013-01-17 18:05:00,25.9,7.9,29.97,West,270,7.0,11.0,46,0.00,,,0.14,meteohub,2013-01-17 23:05:00,
2013-01-17 18:10:00,25.7,7.7,29.97,NW,315,7.0,11.0,46,0.00,,,0.14,meteohub,2013-01-17 23:10:00,
2013-01-17 18:15:00,25.5,7.2,29.98,NW,315,4.0,11.0,45,0.00,,,0.14,meteohub,2013-01-17 23:15:00,
2013-01-17 18:20:00,25.3,6.4,29.99,NW,315,9.0,11.0,44,0.00,,,0.14,meteohub,2013-01-17 23:20:00,
2013-01-17 18:25:00,25.2,6.3,29.99,NW,315,9.0,11.0,44,0.00,,,0.14,meteohub,2013-01-17 23:25:00,
2013-01-17 18:30:00,25.0,8.1,29.99,North,0,8.0,11.0,48,0.00,,,0.14,meteohub,2013-01-17 23:30:00,
2013-01-17 18:35:00,24.6,8.6,29.99,North,0,8.0,11.0,50,0.00,,,0.14,meteohub,2013-01-17 23:35:00,
2013-01-17 18:40:00,24.3,7.9,29.99,North,0,8.0,11.0,49,0.00,,,0.14,meteohub,2013-01-17 23:40:00,
2013-01-17 18:45:00,23.9,7.9,30.00,NW,315,11.0,11.0,50,0.00,,,0.14,meteohub,2013-01-17 23:45:00,
2013-01-17 18:50:00,23.7,8.6,29.99,NW,315,6.0,11.0,52,0.00,,,0.14,meteohub,2013-01-17 23:50:00,
2013-01-17 18:55:00,23.5,7.7,29.99,NE,45,11.0,11.0,50,0.00,,,0.14,meteohub,2013-01-17 23:55:00,
2013-01-17 19:00:00,23.4,7.5,29.99,North,0,13.0,14.0,50,0.00,,,0.14,meteohub,2013-01-18 00:00:00,
2013-01-17 19:05:00,23.2,7.7,29.99,NNW,338,7.0,14.0,51,0.00,,,0.14,meteohub,2013-01-18 00:05:00,
2013-01-17 19:10:00,23.0,7.5,30.00,North,0,9.0,14.0,51,0.00,,,0.14,meteohub,2013-01-18 00:10:00,
2013-01-17 19:16:00,23.0,8.1,30.01,North,0,5.0,14.0,52,0.00,,,0.14,meteohub,2013-01-18 00:16:00,
2013-01-17 19:21:00,22.8,8.2,30.01,NNW,338,8.0,14.0,53,0.00,,,0.14,meteohub,2013-01-18 00:21:00,
2013-01-17 19:26:00,22.5,7.5,30.01,North,0,7.0,14.0,52,0.00,,,0.14,meteohub,2013-01-18 00:26:00,
2013-01-17 19:31:00,22.1,7.5,30.01,North,0,11.0,14.0,53,0.00,,,0.14,meteohub,2013-01-18 00:31:00,
2013-01-17 19:36:00,21.9,7.3,30.01,East,90,7.0,14.0,53,0.00,,,0.14,meteohub,2013-01-18 00:36:00,
2013-01-17 19:41:00,21.7,7.2,30.02,North,0,8.0,15.0,53,0.00,,,0.14,meteohub,2013-01-18 00:41:00,
2013-01-17 19:46:00,21.4,7.0,30.02,NE,45,8.0,15.0,53,0.00,,,0.14,meteohub,2013-01-18 00:46:00,
2013-01-17 19:51:00,21.0,6.1,30.02,NNE,23,13.0,15.0,52,0.00,,,0.14,meteohub,2013-01-18 00:51:00,
2013-01-17 19:56:00,20.7,5.0,30.02,North,0,11.0,15.0,50,0.00,,,0.14,meteohub,2013-01-18 00:56:00,
2013-01-17 20:02:00,20.3,5.0,30.02,North,0,8.0,15.0,51,0.00,,,0.14,meteohub,2013-01-18 01:02:00,
2013-01-17 20:07:00,20.1,5.4,30.03,North,0,9.0,15.0,52,0.00,,,0.14,meteohub,2013-01-18 01:07:00,
2013-01-17 20:12:00,19.9,5.2,30.03,North,0,6.0,15.0,52,0.00,,,0.14,meteohub,2013-01-18 01:12:00,
2013-01-17 20:17:00,19.8,3.7,30.02,North,0,10.0,14.0,49,0.00,,,0.14,meteohub,2013-01-18 01:17:00,
2013-01-17 20:22:00,19.6,3.9,30.02,NW,315,6.0,14.0,50,0.00,,,0.14,meteohub,2013-01-18 01:22:00,
2013-01-17 20:27:00,19.6,4.8,30.02,North,0,5.0,14.0,52,0.00,,,0.14,meteohub,2013-01-18 01:27:00,
2013-01-17 20:32:00,19.4,5.0,30.03,North,0,3.0,14.0,53,0.00,,,0.14,meteohub,2013-01-18 01:32:00,
2013-01-17 20:37:00,19.2,4.8,30.04,North,0,9.0,11.0,53,0.00,,,0.14,meteohub,2013-01-18 01:37:00,
2013-01-17 20:42:00,19.0,4.6,30.04,NE,45,6.0,11.0,53,0.00,,,0.14,meteohub,2013-01-18 01:42:00,
2013-01-17 20:47:00,18.9,5.4,30.04,NW,315,4.0,11.0,55,0.00,,,0.14,meteohub,2013-01-18 01:47:00,
2013-01-17 20:52:00,18.7,4.8,30.04,North,0,4.0,11.0,54,0.00,,,0.14,meteohub,2013-01-18 01:52:00,
2013-01-17 20:57:00,18.5,4.3,30.04,North,0,6.0,11.0,53,0.00,,,0.14,meteohub,2013-01-18 01:57:00,
2013-01-17 21:02:00,18.3,3.6,30.03,North,0,4.0,8.0,52,0.00,,,0.14,meteohub,2013-01-18 02:02:00,
2013-01-17 21:07:00,18.1,3.6,30.03,NE,45,5.0,8.0,52,0.00,,,0.14,meteohub,2013-01-18 02:07:00,
2013-01-17 21:12:00,18.0,3.4,30.02,NE,45,6.0,8.0,52,0.00,,,0.14,meteohub,2013-01-18 02:12:00,
2013-01-17 21:17:00,17.8,3.6,30.02,North,0,8.0,8.0,53,0.00,,,0.14,meteohub,2013-01-18 02:17:00,
2013-01-17 21:22:00,17.6,3.0,30.01,NE,45,6.0,8.0,52,0.00,,,0.14,meteohub,2013-01-18 02:22:00,
2013-01-17 21:28:00,17.6,3.7,30.01,NE,45,7.0,8.0,54,0.00,,,0.14,meteohub,2013-01-18 02:28:00,
2013-01-17 21:33:00,17.2,3.4,30.02,NE,45,8.0,8.0,54,0.00,,,0.14,meteohub,2013-01-18 02:33:00,
2013-01-17 21:38:00,16.9,2.3,30.02,North,0,11.0,11.0,52,0.00,,,0.14,meteohub,2013-01-18 02:38:00,
2013-01-17 21:43:00,16.7,2.1,30.01,NE,45,6.0,10.0,52,0.00,,,0.14,meteohub,2013-01-18 02:43:00,
2013-01-17 21:48:00,16.3,1.8,30.01,NW,315,8.0,10.0,52,0.00,,,0.14,meteohub,2013-01-18 02:48:00,
2013-01-17 21:53:00,16.3,1.8,30.02,NE,45,4.0,10.0,52,0.00,,,0.14,meteohub,2013-01-18 02:53:00,
2013-01-17 21:58:00,16.2,1.6,30.01,NNE,23,5.0,10.0,52,0.00,,,0.14,meteohub,2013-01-18 02:58:00,
2013-01-17 22:03:00,16.0,1.4,30.03,NE,45,10.0,10.0,52,0.00,,,0.14,meteohub,2013-01-18 03:03:00,
2013-01-17 22:08:00,16.0,1.0,30.02,North,0,8.0,10.0,51,0.00,,,0.14,meteohub,2013-01-18 03:08:00,
2013-01-17 22:13:00,16.0,0.7,30.02,North,0,8.0,10.0,50,0.00,,,0.14,meteohub,2013-01-18 03:13:00,
2013-01-17 22:18:00,15.8,0.9,30.01,North,0,6.0,10.0,51,0.00,,,0.14,meteohub,2013-01-18 03:18:00,
2013-01-17 22:23:00,15.8,0.5,30.02,North,0,10.0,10.0,50,0.00,,,0.14,meteohub,2013-01-18 03:23:00,
2013-01-17 22:28:00,15.6,0.7,30.02,North,0,6.0,10.0,51,0.00,,,0.14,meteohub,2013-01-18 03:28:00,
2013-01-17 22:33:00,15.6,0.7,30.02,North,0,5.0,11.0,51,0.00,,,0.14,meteohub,2013-01-18 03:33:00,
2013-01-17 22:38:00,15.4,0.5,30.00,North,0,10.0,11.0,51,0.00,,,0.14,meteohub,2013-01-18 03:38:00,
2013-01-17 22:44:00,15.4,0.5,30.01,NE,45,9.0,11.0,51,0.00,,,0.14,meteohub,2013-01-18 03:44:00,
2013-01-17 22:49:00,15.4,0.1,30.01,NNW,338,5.0,11.0,50,0.00,,,0.14,meteohub,2013-01-18 03:49:00,
2013-01-17 22:54:00,15.3,0.3,30.01,WSW,248,7.0,11.0,51,0.00,,,0.14,meteohub,2013-01-18 03:54:00,
2013-01-17 22:59:00,15.3,0.0,30.02,North,0,11.0,11.0,50,0.00,,,0.14,meteohub,2013-01-18 03:59:00,
2013-01-17 23:04:00,15.3,0.3,30.02,North,0,5.0,14.0,51,0.00,,,0.14,meteohub,2013-01-18 04:04:00,
2013-01-17 23:09:00,15.1,0.1,30.02,North,0,10.0,14.0,51,0.00,,,0.14,meteohub,2013-01-18 04:09:00,
2013-01-17 23:14:00,15.1,0.1,30.02,NE,45,10.0,14.0,51,0.00,,,0.14,meteohub,2013-01-18 04:14:00,
2013-01-17 23:19:00,15.1,0.1,30.02,North,0,6.0,14.0,51,0.00,,,0.14,meteohub,2013-01-18 04:19:00,
2013-01-17 23:24:00,14.9,0.5,30.02,North,0,3.0,14.0,52,0.00,,,0.14,meteohub,2013-01-18 04:24:00,
2013-01-17 23:29:00,14.9,0.5,30.03,NE,45,5.0,14.0,52,0.00,,,0.14,meteohub,2013-01-18 04:29:00,
2013-01-17 23:34:00,14.7,-0.6,30.02,North,0,8.0,11.0,50,0.00,,,0.14,meteohub,2013-01-18 04:34:00,
2013-01-17 23:39:00,14.7,-0.9,30.02,North,0,9.0,11.0,49,0.00,,,0.14,meteohub,2013-01-18 04:39:00,
2013-01-17 23:44:00,14.7,-0.9,30.02,North,0,11.0,11.0,49,0.00,,,0.14,meteohub,2013-01-18 04:44:00,
2013-01-17 23:50:00,14.5,-0.8,30.02,NW,315,7.0,11.0,50,0.00,,,0.14,meteohub,2013-01-18 04:50:00,
2013-01-17 23:55:00,14.5,-0.2,30.01,NE,45,5.0,11.0,51,0.00,,,0.14,meteohub,2013-01-18 04:55:00,